Location: Arboyeti
(42.1122°N, 44.6017°E)
Time: 04:00:26
(UTC+00:00)

Nadezhda 4 Rocket - Pass Details

Date: 19 April 2021
Orbit: 950 x 992 km, 82.9° (Epoch: 09 May)

Event Time Altitude Azimuth Distance (km) Brightness Sun altitude
Rises 16:20:00 0° 352° (N) 3,708 7.5 -6.5°
Reaches altitude 10° 16:22:33 10° 354° (N) 2,752 6.8 -7.0°
Maximum altitude 16:28:52 84° 82° (E) 990 4.0 -8.1°
Drops below altitude 10° 16:35:06 10° 171° (S) 2,706 6.0 -9.1°
Sets 16:37:35 0° 172° (S) 3,643 6.7 -9.5°
